Simultaneous Nadir Overpasses (SNOs) Predictions

Prediction of SNOs between AQUA and NOAA-19 Satellite Orbit:

Table of predicted SNOs for the next 14.0 days since TLE Epoch: 4/1/2023
Index Date (AQUA) Time (AQUA) Lat,Lon (AQUA) SZA (AQUA ) Date (NOAA-19) Time (NOAA-19) Lat,Lon (NOAA-19) SZA (NOAA-19 ) Distance(km) Time Diff (sec)
1 04/03/2023 08:11:14 76.66, 46.22 71.62 04/03/2023 08:11:09 76.67, 46.16 71.64 2.09 5
2 04/05/2023 12:53:47 76.65, -24.38 70.77 04/05/2023 12:52:45 76.65, -24.25 70.77 3.44 62
3 04/05/2023 13:43:12 -76.68, 143.18 109.22 04/05/2023 13:43:46 -76.68, 143.09 109.23 2.20 34
4 04/07/2023 18:25:43 -76.64, 72.69 110.10 04/07/2023 18:25:23 -76.63, 72.57 110.10 3.50 20
5 04/07/2023 19:15:09 76.68,-119.79 69.94 04/07/2023 19:16:18 76.72,-119.80 69.96 4.22 69
6 04/09/2023 23:08:13 -76.62, 2.15 110.95 04/09/2023 23:06:59 -76.61, 2.18 110.94 1.38 74
7 04/09/2023 23:57:39 76.67, 169.65 69.09 04/09/2023 23:57:54 76.68, 169.71 69.10 1.97 15
8 04/12/2023 04:40:07 76.62, 99.20 68.23 04/12/2023 04:39:30 76.63, 99.17 68.24 0.78 37
9 04/12/2023 05:29:33 -76.69, -93.38 111.72 04/12/2023 05:30:32 -76.68, -93.36 111.73 0.73 59
10 04/14/2023 10:12:00 -76.66,-163.88 112.55 04/14/2023 10:12:08 -76.64,-163.85 112.57 2.04 8



Historial Predications of SNOs between AQUA and NOAA-19
